Weather History for KCQX - August, 2013

Change the Weather History Date:

Monday, August 19, 2013

  Actual Average Record
Temperature  
Mean Temperature 68 °F -  
Max Temperature 81 °F 74 °F 84 °F (2002)
Min Temperature 57 °F 61 °F 52 °F (1976)
Cooling Degree Days 4    
Growing Degree Days 18 (Base 50)    
Moisture  
Dew Point 62 °F    
Average Humidity 78    
Maximum Humidity 93    
Minimum Humidity 62    
Precipitation  
Precipitation 0.01 in - - ()
Sea Level Pressure  
Sea Level Pressure 30.03 in    
Wind  
Wind Speed 3 mph (WSW)    
Max Wind Speed 10 mph    
Max Gust Speed 17 mph    
Visibility 10 miles    
Events      
Averages and records for this station are not official NWS values.
T = Trace of Precipitation, MM = Missing Value Source: NWS Daily Summary

Daily Weather History Graph

Daily Weather History Graph

Search for Another Location

Airport or City:

Trip Planner

Search our weather history database for the weather conditions in past years. The results will help you decide how hot, cold, wet, or windy it might be!

Date:

Astronomy

Aug. 19, 2013 Rise Set
Actual Time 5:52 AM EDT 7:33 PM EDT
Civil Twilight 5:23 AM EDT 8:02 PM EDT
Nautical Twilight 4:47 AM EDT 8:38 PM EDT
Astronomical Twilight 4:09 AM EDT 9:16 PM EDT
Moon 6:22 PM EDT (8/19) 4:07 AM EDT (8/19)
Length of Visible Light 14h 39m
Length of Day
13h 40m
Waxing Gibbous, 97% of the Moon is Illuminated
Aug 19
Waxing Gibbous
Aug 20
Full
Aug 28
Last Quarter
Sep 5
New
Sep 12
First Quarter

Hourly Weather History & Observations

Time (EDT) Temp. Heat Index Dew Point Humidity Pressure Visibility Wind Dir Wind Speed Gust Speed Precip Events Conditions
12:52 AM 61.0 °F - 59.0 °F 93% 30.09 in 10.0 mi Calm Calm - N/A   Clear
1:52 AM 60.1 °F - 57.9 °F 93% 30.09 in 9.0 mi WNW 3.5 mph - N/A   Clear
2:52 AM 59.0 °F - 57.0 °F 93% 30.07 in 9.0 mi Calm Calm - N/A   Clear
3:52 AM 57.9 °F - 55.9 °F 93% 30.07 in 10.0 mi West 3.5 mph - 0.01 in   Clear
4:52 AM 57.9 °F - 55.9 °F 93% 30.07 in 10.0 mi Calm Calm - N/A   Clear
5:52 AM 57.9 °F - 55.9 °F 93% 30.07 in 10.0 mi WSW 3.5 mph - N/A   Clear
6:52 AM 62.1 °F - 59.0 °F 90% 30.06 in 10.0 mi WSW 3.5 mph - N/A   Clear
7:52 AM 66.9 °F - 61.0 °F 81% 30.06 in 10.0 mi Variable 3.5 mph - N/A   Clear
8:52 AM 70.0 °F - 61.0 °F 73% 30.05 in 10.0 mi Variable 4.6 mph - N/A   Clear
9:52 AM 73.0 °F - 62.1 °F 68% 30.04 in 10.0 mi WSW 4.6 mph - N/A   Clear
10:52 AM 77.0 °F - 66.0 °F 69% 30.03 in 10.0 mi Variable 6.9 mph - N/A   Clear
11:52 AM 78.1 °F - 66.0 °F 66% 30.03 in 10.0 mi Variable 4.6 mph - N/A   Clear
12:52 PM 80.1 °F 82.1 °F 66.0 °F 62% 30.02 in 10.0 mi SSW 8.1 mph - N/A   Clear
1:52 PM 79.0 °F - 68.0 °F 69% 30.00 in 10.0 mi Variable 5.8 mph - N/A   Clear
2:52 PM 78.1 °F - 66.0 °F 66% 29.99 in 10.0 mi SW 8.1 mph - N/A   Clear
3:52 PM 77.0 °F - 64.9 °F 66% 29.98 in 10.0 mi WSW 10.4 mph 17.3 mph N/A   Clear
4:52 PM 75.0 °F - 64.9 °F 71% 29.98 in 10.0 mi WSW 9.2 mph 16.1 mph N/A   Clear
5:52 PM 73.9 °F - 64.9 °F 73% 29.98 in 10.0 mi WSW 5.8 mph - N/A   Clear
6:52 PM 73.0 °F - 66.0 °F 79% 29.99 in 10.0 mi WSW 5.8 mph - N/A   Clear
7:52 PM 72.0 °F - 66.0 °F 81% 30.00 in 10.0 mi WSW 4.6 mph - N/A   Clear
8:52 PM 72.0 °F - 64.0 °F 76% 30.00 in 10.0 mi WSW 3.5 mph - N/A   Clear
9:52 PM 71.1 °F - 63.0 °F 75% 30.00 in 10.0 mi Variable 3.5 mph - N/A   Clear
10:52 PM 70.0 °F - 63.0 °F 78% 30.00 in 10.0 mi Calm Calm - N/A   Clear
11:52 PM 70.0 °F - 62.1 °F 76% 30.01 in 10.0 mi WSW 3.5 mph - N/A   Clear